Location: Mahannah Oil Field
(37.4664°N, 96.6003°W)
Time: 16:41:38
(UTC+00:00)

Vanguard 2 Rocket - Pass Details

Date: 19 June 2021
Orbit: 554 x 3325 km, 32.9° (Epoch: 24 July)

Event Time Altitude Azimuth Distance (km) Brightness Sun altitude
Rises 05:21:00 0° 273° (W) 6,993 11.7 -27.1°
Reaches altitude 10° 05:26:11 10° 271° (W) 5,687 11.1 -27.4°
Maximum altitude 05:41:54 66° 194° (SSW) 2,078 8.3 -28.2°
Enters shadow 05:45:54 42° 130° (SE) 2,239 8.4 -28.3°
